Flag for U.S.A. Weather past 2 weeks in Aliso Viejo, California, U.S.A.

Now
71 °F

Clear.


Feels Like: 71 °F
Forecast: 66 / 81 °F
Wind: No wind

Location: John Wayne Airport-Orange County Airport

Current Time: Aug 22, 2014 at 3:44:00 AM

Latest Report: Aug 22, 2014 at 2:53 AM


Visibility: 9 mi

Pressure: 29.94 "Hg

Humidity: 81%

Dew point: 65 °F

Location of Aliso ViejoLocation

Historic Weather in Aliso Viejo — Graph

°F

Aliso Viejo temperature yesterday

Maximum temperature yesterday: 81 °F (at 1:53 PM)
Minimum temperature yesterday: 70 °F (at 3:53 AM)
Average temperature yesterday: 75 °F

Past Weeks' High & Low Weather Summary

 TemperatureHumidityPressure
High89 °F (Aug 15, 2:53 PM)82% (Aug 15, 5:53 AM)30.00 "Hg (Aug 15, 5:53 AM)
Low68 °F (Aug 7, 1:53 AM)29% (Aug 15, 3:53 PM)29.79 "Hg (Aug 18, 4:53 PM)
Average75 °F64%29.92 "Hg
* Reported Aug 7 1:53 AM — Aug 22 1:53 AM, Aliso Viejo, Weather by CustomWeather, © 2014

Note: Actual official high and low records may vary slightly from our data, if they occured in-between our weather recording intervals... More about our weather records

Advertising

Aliso Viejo weather history for previous 24 hours

 ConditionsComfort  
Time TempWeatherWind HumidityBarometerVisibility
1:53 AM
Aug 22
71 °FClear.5 mph78%29.94 "Hg10 mi
12:53 AM72 °FClear.No wind76%29.95 "Hg10 mi
11:53 PM
Aug 21
73 °FClear.No wind74%29.95 "Hg10 mi
10:53 PM73 °FPassing clouds.No wind74%29.95 "Hg10 mi
9:53 PM73 °FPassing clouds.3 mph71%29.95 "Hg10 mi
8:53 PM73 °FPassing clouds.3 mph71%29.94 "Hg10 mi
7:53 PM73 °FScattered clouds.5 mph69%29.92 "Hg10 mi
6:53 PM75 °FScattered clouds.6 mph64%29.90 "Hg10 mi
5:53 PM77 °FPassing clouds.6 mph58%29.89 "Hg10 mi
4:53 PM79 °FPassing clouds.8 mph54%29.88 "Hg10 mi
3:53 PM80 °FScattered clouds.9 mph52%29.88 "Hg10 mi
2:53 PM81 °FScattered clouds.8 mph51%29.90 "Hg10 mi
1:53 PM81 °FScattered clouds.7 mph51%29.92 "Hg10 mi
12:53 PM79 °FScattered clouds.7 mph54%29.93 "Hg10 mi
11:53 AM78 °FScattered clouds.10 mph56%29.95 "Hg10 mi
10:53 AM79 °FScattered clouds.9 mph56%29.95 "Hg10 mi
9:53 AM76 °FPassing clouds.3 mph58%29.95 "Hg10 mi
8:53 AM73 °FPassing clouds.No wind66%29.95 "Hg10 mi
7:53 AM71 °FPartly sunny.No wind71%29.94 "Hg10 mi
6:53 AM71 °FPassing clouds.No wind73%29.93 "Hg10 mi
5:53 AM71 °FPassing clouds.No wind71%29.91 "Hg10 mi
4:53 AM70 °FOvercast.No wind76%29.91 "Hg10 mi
3:53 AM70 °FClear.No wind76%29.92 "Hg10 mi
Weather by CustomWeather, © 2014

See weather overviewHow to use our weather pages